Location: *
(37.5724°S, 58.0067°E)
Time: 11:41:12
(UTC+00:00)

USA 229 DEB - Pass Details

Date: 30 November 2021
Orbit: 943 x 1269 km, 63.4° (Epoch: 14 January)

Event Time Altitude Azimuth Distance (km) Brightness Sun altitude
Rises 23:49:41 0° 206° (SSW) 3,962 6.8 -9.3°
Reaches altitude 10° 23:55:24 10° 170° (S) 2,901 6.7 -8.4°
Maximum altitude 23:56:56 11° 157° (SSE) 2,817 6.9 -8.1°
Drops below altitude 10° 23:58:28 10° 143° (SE) 2,848 7.4 -7.9°
Sets 00:03:49 0° 107° (ESE) 3,713 8.2 -7.0°
